This demonstration page uses our WeatherBlox Daily Observations layout. Learn more.

Left ArrowRight Arrow

Hourly Observations for February 12, 2015

Temp ( °F °C ) Dew Point ( °F °C ) Humidity (%) Winds ( mph kmh ) Pressure ( in mb ) Visibility ( mi km ) Precip ( " mm )
12:53 am 00:53 Clear 50 10 45 7.2 83 83 NNW 3 6 30.21 1023 10 16 0.00 0.00
1:53 am 01:53 Clear 47 8.3 44 6.7 90 90 Calm 30.20 1023 10 16 0.00 0.00
2:53 am 02:53 Clear 47 8.3 44 6.7 90 90 Calm 30.20 1023 10 16 0.00 0.00
3:53 am 03:53 Clear 46 7.8 43 6.1 89 89 Calm 30.20 1023 10 16 0.00 0.00
4:53 am 04:53 Clear 45 7.2 43 6.1 93 93 NW 3 6 30.20 1023 10 16 0.00 0.00
5:53 am 05:53 Clear 44 6.7 41 5 89 89 NNE 5 7 30.21 1023 10 16 0.00 0.00
6:53 am 06:53 Clear 42 5.6 40 4.4 92 92 N 3 6 30.22 1023 10 16 0.00 0.00
7:53 am 07:53 Sunny 44 6.7 41 5 89 89 Calm 30.23 1024 10 16 0.00 0.00
8:53 am 08:53 Sunny 52 11.1 46 7.8 80 80 Calm 30.23 1024 10 16 0.00 0.00
9:53 am 09:53 Sunny 56 13.3 49 9.4 77 77 Calm 30.22 1024 10 16 0.00 0.00
10:53 am 10:53 Sunny 64 17.8 46 7.8 52 52 Calm 30.22 1023 10 16 0.00 0.00
11:53 am 11:53 Sunny 66 18.9 45 7.2 47 47 Calm 30.19 1022 10 16 0.00 0.00
12:53 pm 12:53 Sunny 69 20.6 46 7.8 44 44 Calm 30.16 1022 10 16 0.00 0.00
1:53 pm 13:53 Sunny 72 22.2 45 7.2 38 38 WNW 5 7 30.15 1021 10 16 0.00 0.00
2:53 pm 14:53 Sunny 73 22.8 47 8.3 40 40 Calm 30.14 1021 10 16 0.00 0.00
3:53 pm 15:53 Sunny 72 22.2 48 8.9 43 43 Calm 30.13 1020 10 16 0.00 0.00
4:53 pm 16:53 Sunny 68 20 52 11.1 57 57 SE 5 7 30.13 1020 10 16 0.00 0.00
5:53 pm 17:53 Clear 65 18.3 50 10 59 59 Calm 30.14 1021 10 16 0.00 0.00
6:53 pm 18:53 Clear 60 15.6 52 11.1 75 75 Calm 30.15 1021 10 16 0.00 0.00
7:53 pm 19:53 Clear 56 13.3 50 10 81 81 Calm 30.16 1021 10 16 0.00 0.00
8:53 pm 20:53 Clear 54 12.2 49 9.4 83 83 Calm 30.16 1022 10 16 0.00 0.00
9:53 pm 21:53 Clear 51 10.6 48 8.9 89 89 NNW 3 6 30.16 1022 10 16 0.00 0.00
10:53 pm 22:53 Clear 51 10.6 48 8.9 89 89 Calm 30.16 1021 10 16 0.00 0.00
11:53 pm 23:53 Clear 51 10.6 48 8.9 89 89 Calm 30.16 1021 10 16 0.00 0.00

Powered by AerisWeather